Time,TemperatureF,DewpointF,PressureIn,WindDirection,WindDirectionDegrees,WindSpeedMPH,WindSpeedGustMPH,Humidity,HourlyPrecipIn,Conditions,Clouds,dailyrainin,SoftwareType,DateUTC
2013-07-02 00:02:00,51.0,49.0,-100.00,WNW,285,1.0,6.0,95,-99.99,,,-99.99,,2013-07-02 08:02:00,
2013-07-02 00:12:00,51.0,49.0,-100.00,WNW,285,1.0,6.0,95,-99.99,,,-99.99,,2013-07-02 08:12:00,
2013-07-02 00:22:00,51.0,49.0,-100.00,West,275,0.0,4.0,95,-99.99,,,-99.99,,2013-07-02 08:22:00,
2013-07-02 00:33:00,51.0,49.0,-100.00,West,275,0.0,4.0,95,-99.99,,,-99.99,,2013-07-02 08:33:00,
2013-07-02 00:44:00,51.0,49.0,-100.00,West,275,0.0,4.0,95,-99.99,,,-99.99,,2013-07-02 08:44:00,
2013-07-02 00:53:00,50.0,49.0,-100.00,SE,130,0.0,1.0,96,-99.99,,,-99.99,,2013-07-02 08:53:00,
2013-07-02 01:01:00,50.0,49.0,-100.00,SE,130,0.0,1.0,96,-99.99,,,-99.99,,2013-07-02 09:01:00,
2013-07-02 01:11:00,50.0,49.0,-100.00,SE,130,0.0,1.0,96,-99.99,,,-99.99,,2013-07-02 09:11:00,
2013-07-02 01:22:00,50.0,49.0,-100.00,NNW,330,1.0,1.0,96,-99.99,,,-99.99,,2013-07-02 09:22:00,
2013-07-02 01:33:00,50.0,49.0,-100.00,NNW,330,1.0,1.0,96,-99.99,,,-99.99,,2013-07-02 09:33:00,
2013-07-02 01:43:00,50.0,49.0,-100.00,NNW,330,1.0,1.0,96,-99.99,,,-99.99,,2013-07-02 09:43:00,
2013-07-02 01:52:00,49.0,48.0,-100.00,SE,130,0.0,2.0,96,-99.99,,,-99.99,,2013-07-02 09:52:00,
2013-07-02 02:01:00,49.0,48.0,-100.00,SE,130,0.0,2.0,96,-99.99,,,-99.99,,2013-07-02 10:01:00,
2013-07-02 02:11:00,49.0,48.0,-100.00,SE,130,0.0,2.0,96,-99.99,,,-99.99,,2013-07-02 10:11:00,
2013-07-02 02:22:00,49.0,48.0,-100.00,East,90,2.0,3.0,97,-99.99,,,-99.99,,2013-07-02 10:22:00,
2013-07-02 02:33:00,49.0,48.0,-100.00,East,90,2.0,3.0,97,-99.99,,,-99.99,,2013-07-02 10:33:00,
2013-07-02 02:44:00,49.0,48.0,-100.00,East,90,2.0,3.0,97,-99.99,,,-99.99,,2013-07-02 10:44:00,
2013-07-02 02:52:00,48.0,48.0,-100.00,East,90,1.0,1.0,97,-99.99,,,-99.99,,2013-07-02 10:52:00,
2013-07-02 03:01:00,48.0,48.0,-100.00,East,90,1.0,1.0,97,-99.99,,,-99.99,,2013-07-02 11:01:00,
2013-07-02 03:11:00,48.0,48.0,-100.00,East,90,1.0,1.0,97,-99.99,,,-99.99,,2013-07-02 11:11:00,
2013-07-02 03:33:00,48.0,47.0,-100.00,East,80,0.0,1.0,97,-99.99,,,-99.99,,2013-07-02 11:33:00,
2013-07-02 03:42:00,48.0,47.0,-100.00,East,80,0.0,1.0,97,-99.99,,,-99.99,,2013-07-02 11:42:00,
2013-07-02 03:52:00,49.0,48.0,-100.00,NNE,15,0.0,4.0,97,-99.99,,,-99.99,,2013-07-02 11:52:00,
2013-07-02 04:01:00,49.0,48.0,-100.00,NNE,15,0.0,4.0,97,-99.99,,,-99.99,,2013-07-02 12:01:00,
2013-07-02 04:11:00,49.0,48.0,-100.00,NNE,15,0.0,4.0,97,-99.99,,,-99.99,,2013-07-02 12:11:00,
2013-07-02 04:23:00,49.0,48.0,-100.00,NE,55,0.0,4.0,98,-99.99,,,-99.99,,2013-07-02 12:23:00,
2013-07-02 04:33:00,49.0,48.0,-100.00,NE,55,0.0,4.0,98,-99.99,,,-99.99,,2013-07-02 12:33:00,
2013-07-02 04:43:00,49.0,48.0,-100.00,NE,55,0.0,4.0,98,-99.99,,,-99.99,,2013-07-02 12:43:00,
2013-07-02 04:52:00,48.0,48.0,-100.00,East,95,0.0,4.0,98,-99.99,,,-99.99,,2013-07-02 12:52:00,
2013-07-02 05:01:00,48.0,48.0,-100.00,East,95,0.0,4.0,98,-99.99,,,-99.99,,2013-07-02 13:01:00,
2013-07-02 05:11:00,48.0,48.0,-100.00,East,95,0.0,4.0,98,-99.99,,,-99.99,,2013-07-02 13:11:00,
2013-07-02 05:43:00,48.0,47.0,-100.00,East,80,3.0,6.0,98,-99.99,,,-99.99,,2013-07-02 13:43:00,
2013-07-02 06:01:00,48.0,47.0,-100.00,West,265,2.0,7.0,98,-99.99,,,-99.99,,2013-07-02 14:01:00,
2013-07-02 06:11:00,48.0,47.0,-100.00,West,265,2.0,7.0,98,-99.99,,,-99.99,,2013-07-02 14:11:00,
2013-07-02 06:22:00,48.0,47.0,-100.00,West,275,1.0,4.0,98,-99.99,,,-99.99,,2013-07-02 14:22:00,
2013-07-02 06:33:00,48.0,47.0,-100.00,West,275,1.0,4.0,98,-99.99,,,-99.99,,2013-07-02 14:33:00,
2013-07-02 06:43:00,48.0,47.0,-100.00,West,275,1.0,4.0,98,-99.99,,,-99.99,,2013-07-02 14:43:00,
2013-07-02 06:53:00,48.0,47.0,-100.00,NNE,30,1.0,4.0,98,-99.99,,,-99.99,,2013-07-02 14:53:00,
2013-07-02 07:02:00,48.0,47.0,-100.00,NNE,30,1.0,4.0,98,-99.99,,,-99.99,,2013-07-02 15:02:00,
2013-07-02 07:11:00,48.0,47.0,-100.00,NNE,30,1.0,4.0,98,-99.99,,,-99.99,,2013-07-02 15:11:00,
2013-07-02 07:22:00,48.0,47.0,-100.00,NE,50,0.0,1.0,98,-99.99,,,-99.99,,2013-07-02 15:22:00,
2013-07-02 07:33:00,48.0,47.0,-100.00,NE,50,0.0,1.0,98,-99.99,,,-99.99,,2013-07-02 15:33:00,
2013-07-02 07:44:00,48.0,47.0,-100.00,NE,50,0.0,1.0,98,-99.99,,,-99.99,,2013-07-02 15:44:00,
2013-07-02 08:01:00,48.0,47.0,-100.00,NW,310,1.0,4.0,98,-99.99,,,-99.99,,2013-07-02 16:01:00,
2013-07-02 08:11:00,48.0,47.0,-100.00,NW,310,1.0,4.0,98,-99.99,,,-99.99,,2013-07-02 16:11:00,
2013-07-02 08:33:00,49.0,48.0,-100.00,South,180,1.0,3.0,98,-99.99,,,-99.99,,2013-07-02 16:33:00,
2013-07-02 08:43:00,49.0,48.0,-100.00,South,180,1.0,3.0,98,-99.99,,,-99.99,,2013-07-02 16:43:00,
2013-07-02 09:02:00,49.0,48.0,-100.00,WSW,255,3.0,6.0,97,-99.99,,,-99.99,,2013-07-02 17:02:00,
2013-07-02 09:11:00,49.0,48.0,-100.00,WSW,255,3.0,6.0,97,-99.99,,,-99.99,,2013-07-02 17:11:00,
2013-07-02 09:22:00,50.0,48.0,-100.00,West,275,1.0,6.0,94,-99.99,,,-99.99,,2013-07-02 17:22:00,
2013-07-02 09:33:00,50.0,48.0,-100.00,West,275,1.0,6.0,94,-99.99,,,-99.99,,2013-07-02 17:33:00,
2013-07-02 09:43:00,50.0,48.0,-100.00,West,275,1.0,6.0,94,-99.99,,,-99.99,,2013-07-02 17:43:00,
2013-07-02 10:02:00,50.0,47.0,-100.00,West,260,1.0,5.0,90,-99.99,,,-99.99,,2013-07-02 18:02:00,
2013-07-02 10:11:00,50.0,47.0,-100.00,West,260,1.0,5.0,90,-99.99,,,-99.99,,2013-07-02 18:11:00,
2013-07-02 10:34:00,51.0,47.0,-100.00,East,95,3.0,9.0,85,-99.99,,,-99.99,,2013-07-02 18:34:00,
2013-07-02 10:43:00,51.0,47.0,-100.00,East,95,3.0,9.0,85,-99.99,,,-99.99,,2013-07-02 18:43:00,
2013-07-02 10:53:00,51.0,46.0,-100.00,SE,125,2.0,6.0,84,-99.99,,,-99.99,,2013-07-02 18:53:00,
2013-07-02 11:01:00,51.0,46.0,-100.00,SE,125,2.0,6.0,84,-99.99,,,-99.99,,2013-07-02 19:01:00,
2013-07-02 11:11:00,51.0,46.0,-100.00,SE,125,2.0,6.0,84,-99.99,,,-99.99,,2013-07-02 19:11:00,
2013-07-02 11:22:00,52.0,46.0,-100.00,East,95,2.0,9.0,81,-99.99,,,-99.99,,2013-07-02 19:22:00,
2013-07-02 11:33:00,52.0,46.0,-100.00,East,95,2.0,9.0,81,-99.99,,,-99.99,,2013-07-02 19:33:00,
2013-07-02 11:43:00,52.0,46.0,-100.00,East,95,2.0,9.0,81,-99.99,,,-99.99,,2013-07-02 19:43:00,
2013-07-02 12:01:00,52.0,46.0,-100.00,WNW,295,3.0,9.0,79,-99.99,,,-99.99,,2013-07-02 20:01:00,
2013-07-02 12:11:00,52.0,46.0,-100.00,WNW,295,3.0,9.0,79,-99.99,,,-99.99,,2013-07-02 20:11:00,
2013-07-02 12:33:00,53.0,45.0,-100.00,West,280,2.0,12.0,73,-99.99,,,-99.99,,2013-07-02 20:33:00,
2013-07-02 12:43:00,53.0,45.0,-100.00,West,280,2.0,12.0,73,-99.99,,,-99.99,,2013-07-02 20:43:00,
2013-07-02 12:52:00,54.0,46.0,-100.00,West,260,4.0,11.0,74,-99.99,,,-99.99,,2013-07-02 20:52:00,
2013-07-02 13:02:00,54.0,46.0,-100.00,West,260,4.0,11.0,74,-99.99,,,-99.99,,2013-07-02 21:02:00,
2013-07-02 13:11:00,54.0,46.0,-100.00,West,260,4.0,11.0,74,-99.99,,,-99.99,,2013-07-02 21:11:00,
2013-07-02 13:22:00,54.0,45.0,-100.00,West,265,6.0,11.0,73,-99.99,,,-99.99,,2013-07-02 21:22:00,
2013-07-02 13:33:00,54.0,45.0,-100.00,West,265,6.0,11.0,73,-99.99,,,-99.99,,2013-07-02 21:33:00,
2013-07-02 13:44:00,54.0,45.0,-100.00,West,265,6.0,11.0,73,-99.99,,,-99.99,,2013-07-02 21:44:00,
2013-07-02 13:52:00,55.0,45.0,-100.00,West,270,4.0,11.0,70,-99.99,,,-99.99,,2013-07-02 21:52:00,
2013-07-02 14:01:00,55.0,45.0,-100.00,West,270,4.0,11.0,70,-99.99,,,-99.99,,2013-07-02 22:01:00,
2013-07-02 14:11:00,55.0,45.0,-100.00,West,270,4.0,11.0,70,-99.99,,,-99.99,,2013-07-02 22:11:00,
2013-07-02 14:22:00,56.0,45.0,-100.00,West,270,4.0,9.0,66,-99.99,,,-99.99,,2013-07-02 22:22:00,
2013-07-02 14:33:00,56.0,45.0,-100.00,West,270,4.0,9.0,66,-99.99,,,-99.99,,2013-07-02 22:33:00,
2013-07-02 14:43:00,56.0,45.0,-100.00,West,270,4.0,9.0,66,-99.99,,,-99.99,,2013-07-02 22:43:00,
2013-07-02 14:53:00,56.0,45.0,-100.00,West,280,7.0,13.0,67,-99.99,,,-99.99,,2013-07-02 22:53:00,
2013-07-02 15:01:00,56.0,45.0,-100.00,West,280,7.0,13.0,67,-99.99,,,-99.99,,2013-07-02 23:01:00,
2013-07-02 15:11:00,56.0,45.0,-100.00,West,280,7.0,13.0,67,-99.99,,,-99.99,,2013-07-02 23:11:00,
2013-07-02 15:22:00,56.0,46.0,-100.00,West,265,6.0,14.0,71,-99.99,,,-99.99,,2013-07-02 23:22:00,
2013-07-02 15:33:00,56.0,46.0,-100.00,West,265,6.0,14.0,71,-99.99,,,-99.99,,2013-07-02 23:33:00,
2013-07-02 15:44:00,56.0,46.0,-100.00,West,265,6.0,14.0,71,-99.99,,,-99.99,,2013-07-02 23:44:00,
2013-07-02 15:52:00,54.0,46.0,-100.00,West,265,4.0,12.0,75,-99.99,,,-99.99,,2013-07-02 23:52:00,
2013-07-02 16:01:00,54.0,46.0,-100.00,West,265,4.0,12.0,75,-99.99,,,-99.99,,2013-07-03 00:01:00,
2013-07-02 16:11:00,54.0,46.0,-100.00,West,265,4.0,12.0,75,-99.99,,,-99.99,,2013-07-03 00:11:00,
2013-07-02 16:33:00,53.0,46.0,-100.00,West,260,6.0,12.0,78,-99.99,,,-99.99,,2013-07-03 00:33:00,
2013-07-02 16:44:00,53.0,46.0,-100.00,West,260,6.0,12.0,78,-99.99,,,-99.99,,2013-07-03 00:44:00,
2013-07-02 17:01:00,53.0,46.0,-100.00,West,275,6.0,12.0,77,-99.99,,,-99.99,,2013-07-03 01:01:00,
2013-07-02 17:11:00,53.0,46.0,-100.00,West,275,6.0,12.0,77,-99.99,,,-99.99,,2013-07-03 01:11:00,
2013-07-02 17:22:00,53.0,45.0,-100.00,West,270,4.0,11.0,74,-99.99,,,-99.99,,2013-07-03 01:22:00,
2013-07-02 17:33:00,53.0,45.0,-100.00,West,270,4.0,11.0,74,-99.99,,,-99.99,,2013-07-03 01:33:00,
2013-07-02 17:42:00,53.0,45.0,-100.00,West,270,4.0,11.0,74,-99.99,,,-99.99,,2013-07-03 01:42:00,
2013-07-02 17:58:00,54.0,44.0,-100.00,NW,320,3.0,11.0,68,-99.99,,,-99.99,,2013-07-03 01:58:00,
2013-07-02 18:12:00,54.0,44.0,-100.00,NW,320,3.0,11.0,68,-99.99,,,-99.99,,2013-07-03 02:12:00,
2013-07-02 18:23:00,54.0,44.0,-100.00,WNW,290,3.0,9.0,68,-99.99,,,-99.99,,2013-07-03 02:23:00,
2013-07-02 18:34:00,54.0,44.0,-100.00,WNW,290,3.0,9.0,68,-99.99,,,-99.99,,2013-07-03 02:34:00,
2013-07-02 18:45:00,54.0,44.0,-100.00,WNW,290,3.0,9.0,68,-99.99,,,-99.99,,2013-07-03 02:45:00,
2013-07-02 18:56:00,54.0,42.0,-100.00,NW,305,4.0,11.0,65,-99.99,,,-99.99,,2013-07-03 02:56:00,
2013-07-02 19:02:00,54.0,42.0,-100.00,NW,305,4.0,11.0,65,-99.99,,,-99.99,,2013-07-03 03:02:00,
2013-07-02 19:12:00,54.0,42.0,-100.00,NW,305,4.0,11.0,65,-99.99,,,-99.99,,2013-07-03 03:12:00,
2013-07-02 19:25:00,54.0,44.0,-100.00,NW,325,2.0,10.0,69,-99.99,,,-99.99,,2013-07-03 03:25:00,
2013-07-02 19:33:00,54.0,44.0,-100.00,NW,325,2.0,10.0,69,-99.99,,,-99.99,,2013-07-03 03:33:00,
2013-07-02 19:48:00,54.0,44.0,-100.00,NW,325,2.0,10.0,69,-99.99,,,-99.99,,2013-07-03 03:48:00,
2013-07-02 19:57:00,53.0,43.0,-100.00,WSW,250,3.0,7.0,70,-99.99,,,-99.99,,2013-07-03 03:57:00,
2013-07-02 20:01:00,53.0,43.0,-100.00,WSW,250,3.0,7.0,70,-99.99,,,-99.99,,2013-07-03 04:01:00,
2013-07-02 20:11:00,53.0,43.0,-100.00,WSW,250,3.0,7.0,70,-99.99,,,-99.99,,2013-07-03 04:11:00,
2013-07-02 20:22:00,52.0,44.0,-100.00,WSW,255,2.0,6.0,73,-99.99,,,-99.99,,2013-07-03 04:22:00,
2013-07-02 20:33:00,52.0,44.0,-100.00,WSW,255,2.0,6.0,73,-99.99,,,-99.99,,2013-07-03 04:33:00,
2013-07-02 20:43:00,52.0,44.0,-100.00,WSW,255,2.0,6.0,73,-99.99,,,-99.99,,2013-07-03 04:43:00,
2013-07-02 20:52:00,52.0,44.0,-100.00,NNW,345,0.0,6.0,75,-99.99,,,-99.99,,2013-07-03 04:52:00,
2013-07-02 21:01:00,52.0,44.0,-100.00,NNW,345,0.0,6.0,75,-99.99,,,-99.99,,2013-07-03 05:01:00,
2013-07-02 21:11:00,52.0,44.0,-100.00,NNW,345,0.0,6.0,75,-99.99,,,-99.99,,2013-07-03 05:11:00,
2013-07-02 21:23:00,52.0,45.0,-100.00,West,270,2.0,6.0,78,-99.99,,,-99.99,,2013-07-03 05:23:00,
2013-07-02 21:48:00,52.0,45.0,-100.00,West,270,2.0,6.0,78,-99.99,,,-99.99,,2013-07-03 05:48:00,
2013-07-02 22:01:00,51.0,45.0,-100.00,WNW,295,1.0,4.0,82,-99.99,,,-99.99,,2013-07-03 06:01:00,
2013-07-02 22:23:00,50.0,46.0,-100.00,WSW,255,1.0,4.0,85,-99.99,,,-99.99,,2013-07-03 06:23:00,
2013-07-02 22:34:00,50.0,46.0,-100.00,WSW,255,1.0,4.0,85,-99.99,,,-99.99,,2013-07-03 06:34:00,
2013-07-02 22:50:00,50.0,46.0,-100.00,WSW,255,1.0,4.0,85,-99.99,,,-99.99,,2013-07-03 06:50:00,
2013-07-02 22:56:00,50.0,46.0,-100.00,WSW,255,1.0,2.0,88,-99.99,,,-99.99,,2013-07-03 06:56:00,
2013-07-02 23:02:00,50.0,46.0,-100.00,WSW,255,1.0,2.0,88,-99.99,,,-99.99,,2013-07-03 07:02:00,
2013-07-02 23:12:00,50.0,46.0,-100.00,WSW,255,1.0,2.0,88,-99.99,,,-99.99,,2013-07-03 07:12:00,
2013-07-02 23:23:00,50.0,46.0,-100.00,West,270,1.0,4.0,89,-99.99,,,-99.99,,2013-07-03 07:23:00,
2013-07-02 23:47:00,50.0,46.0,-100.00,West,270,1.0,4.0,89,-99.99,,,-99.99,,2013-07-03 07:47:00,
2013-07-02 23:58:00,49.0,47.0,-100.00,WNW,290,0.0,1.0,90,-99.99,,,-99.99,,2013-07-03 07:58:00,